mattdh12's sites:

title views votes rating creation
?mj visits quiznos 1,643 47 (4.26)  2014-10-14
?conan news 1,983 63 (3.97)  2013-04-01
?roulette 6,215 96 (4.48)  2013-01-06
?my new text message notification sound 1,142 35 (3.77)  2012-07-22
?bob dole gets a haircut 2,607 77 (4.12)  2011-07-18
?tampa bay opening day 1,496 42 (4.29)  2011-04-12
?clock tower ringing OF THE FUTURE 1,985 38 (4.21)  2010-11-05
?record sounds: the record 1,471 34 (4.29)  2010-04-07
?winston churchill revenge part 2 - WINSTON CHU... 1,057 26 (4.35)  2009-10-24
?winston churchill revenge part 1 - WINSTON CHU... 1,511 22 (4.18)  2009-10-24
?Homeless People HATE the Super Bowl 1,172 56 (4.34)  2009-09-02
?tourney3: cone n jokes for the metal demographic 1,063 24 (4.50)  2009-07-26
?tourney3: shakespeare's forgotten last dram... 1,781 75 (4.07)  2009-07-16
?Lady Gaga - Poker Face (a Kevin Federline remix) 6,229 72 (3.97)  2009-03-22
?fight themed ytmnd for the photoshop tournament c... 1,243 44 (4.20)  2009-01-18
?(nsfw) 2008 yelling bee 3,696 169 (3.99)  2008-11-16
?mario makes a sandwich 23,946 747 (4.25)  2008-08-13
?best ytnmd ever 4,298 147 (4.49)  2008-07-14
?3:00 drinkin dat soda 1,345 45 (4.22)  2008-06-02
?(nsfw) idiot hallo"weiner" "tps&quot... 4,117 125 (3.90)  2008-05-29
?mitch hedberg "moves tha crowd" (with l... 2,001 44 (4.30)  2008-04-22
?Tiger Woods Putt To Win Arnie Palson Tourname... 3,833 61 (4.16)  2008-04-03
?"u"tube duel 2,033 99 (4.01)  2008-03-03
?work safety 3,966 218 (4.14)  2008-01-20
?shaq gives birth 9,278 334 (4.11)  2008-01-01
?guy who milks cows grabs the wrong bucket and a... 3,264 87 (4.21)  2007-12-17
?raige aganest the machines final concert [full video] ... 1,090 40 (4.13)  2007-12-09
?trebeks thanksgiving 1,205 45 (4.11)  2007-11-23
?shaq zone 32,173 979 (4.42)  2007-11-12
?Part 3: "Funny Show: The Show": Epis... 607 28 (4.21)  2007-11-05
?Part 2: "Funny Show: The Show": Epis... 598 24 (4.17)  2007-11-05
?Part 1: "Funny Show: The Show": Epis... 2,281 85 (4.21)  2007-11-05
?the patty melt song 566 21 (3.76)  2007-10-18
?Mario Gets Revenge On Neo 1,278 47 (4.06)  2007-10-15
?HOOOOOOOONK! OOOOOOOOH! 1,511 46 (4.39)  2007-10-12
?(nsfw) kramer gets the wrong script but it doesnt m... 5,560 108 (4.16)  2007-10-06
?[b](nsfw)[/b] Alternate Ending to the Hit Film "... 22,130 90 (4.14)  2007-09-21
?PART 1: BEST BEATS (i win, best cannot be BE... 567 32 (4.09)  2007-09-13
?tight 691 24 (3.83)  2007-09-08
?Sp"y": "der man" 4 IN 3-D 905 25 (4.28)  2007-08-25
?Your Mom ft. Dyslexia - Light My Fire [LIVE] 905 45 (3.89)  2007-08-19
?scene from ""A Jerk"" 632 29 (3.97)  2007-08-18
?doctor gets sunburned and gives sun a "taste... 3,371 156 (4.07)  2007-08-09
?bob barker as a contestant on the new price is right 4,918 80 (4.01)  2007-07-17
?captain jean luc picard plays 3D Pinball for Window... 4,456 69 (3.99)  2007-07-08
?cant brake treadmill guys stride 855 27 (3.30)  2007-07-03
?(nsfw) blank space 2,202 76 (3.99)  2007-06-29
?exciting infinite lap race 762 25 (4.04)  2007-06-12
?funky furniture 1,522 89 (3.83)  2007-06-09
?a biker jumps too far 1,172 54 (4.17)  2007-05-25
?Ending to Se7en in German (with subtitles) 1,138 33 (4.00)  2007-05-18
?carlos mencia steals from websters joke book? 3,581 35 (4.11)  2007-05-12
?a plate fight for the ages 1,237 37 (3.89)  2007-05-07
?my title was too long so i put it in the description 10,506 209 (3.89)  2007-05-06
?YTMND.dot.fce 1,008 63 (3.89)  2007-05-02
?(nsfw) jared does the 30 second version of a comm... 3,119 107 (3.96)  2007-05-01
?extreme street jumping with big daddy gramps 866 17 (3.88)  2007-04-28
?put hat on "head" 698 34 (4.15)  2007-04-11
?pizza guy performs coltrane but is blWHOAn awa... 2,912 44 (4.25)  2007-04-10
?mitch hedberg says some words but the crowd doe... 1,081 30 (3.57)  2007-04-04
?(nsfw) i get my first birdie in tiger woods 2007 and fe... 3,364 57 (4.05)  2007-04-04
?Photoshop Contest 1,583 40 (3.73)  2007-03-28
?chief (updated title, no longer says dew army in par... 782 29 (3.90)  2007-03-25
?(nsfw) customer tries to order bread but the waiter ... 2,451 37 (3.92)  2007-03-21
?We just might be trapped 784 27 (3.67)  2007-03-19
?my grandpa experiments with a snowy sandwich be... 2,780 38 (3.89)  2007-03-18
?If the Movie Speed was Realistic 1,001 37 (4.14)  2007-03-13
?Comedy General Hospital with Major Budget Cuts In... 818 31 (4.03)  2007-03-07
?Picture Time at the Library 718 35 (3.49)  2007-03-05
?I AM GOING TO SUE YOU'R CAT!!! a dra... 3,537 41 (3.39)  2007-03-04
?My Balloons and Me 940 39 (4.31)  2007-02-26
?Macromedia Flash Noise Tutorial 2,514 61 (3.85)  2007-02-21
?A NEW FAD SITE LOL FOR THE NEW FAD 1,031 52 (3.94)  2007-02-20
?My Favorite Kill Bill Scene 3,061 76 (4.13)  2007-02-16
?(nsfw) AAHHK 1,362 34 (4.24)  2007-02-15
?LAUGHING CLOCK NO WAY LOL NOT FAKE 1,311 39 (3.82)  2007-02-13
?Bart's Mortal Enemy 16,114 357 (3.79)  2007-02-11
?THE AXE EFFECT 728 18 (3.61)  2007-02-11
?scanimation 746 37 (4.16)  2007-02-09
?THREE MINUTE COMIXS 1,096 32 (4.06)  2007-02-07
?THE SECOND FINAL BATTLE 1,275 32 (4.09)  2007-02-06
?Popular 720 33 (4.15)  2007-02-04
?Funeral 1,564 45 (4.16)  2007-01-28
?local on the 8s? more like...local voat 5 on this ytm... 1,074 61 (3.77)  2007-01-27
?(nsfw) ATTENTION YTMND: NSFW 13,660 65 (3.92)  2007-01-21
?THE FIRST FINAL BATTLE 906 30 (3.93)  2007-01-21
?fresh prince of square wave 1,368 44 (3.73)  2007-01-20
?will smith says uh what woo and haha a lot 22,069 465 (4.24)  2007-01-18
?SWEET SASSY MOLASSY 909 36 (3.64)  2007-01-17
?three things happen: jorge plays fast money, you v... 1,340 64 (4.14)  2007-01-15
?FUNNIE BAGELS WITH ZAZAZA ADDED LOL ... 2,795 37 (3.76)  2007-01-15
?Teenage Mustard Ninja Jorge Busch and Aleksand... 1,717 85 (3.76)  2007-01-06
?The World is Flat 8,604 463 (4.33)  2007-01-03
?NEW SITCOM 997 26 (3.92)  2007-01-02
?PlREEEEEEEEEase. KHAN am NOOOOOOOgof... 976 40 (3.65)  2006-12-29
?oj simpson was GUILTY 787 23 (3.52)  2006-12-28
?these rocket balloons are perfect, what more could... 2,039 27 (4.04)  2006-12-23
?(nsfw) jon carrie atemps to billd a grand carrielition in... 3,734 136 (3.69)  2006-12-22
?some person enjoys a ytmnd of an object without a ... 1,107 41 (3.80)  2006-12-21
?test site 840 35 (3.97)  2006-12-20
?Trick Shot Magic 913 33 (3.52)  2006-12-17
?WHAT WAS I THINKING? 1,608 65 (4.25)  2006-11-29
?famly um uh feyoud 725 30 (4.03)  2006-11-28
?(nsfw) DANCING SUNGLASSES 1,158 37 (3.70)  2006-11-28
?SHE FORGOT MY WATCH 637 32 (3.94)  2006-11-27
?jon carrie plays grand carrielition sweeper but loses ... 1,520 82 (3.98)  2006-11-24
?Jared is Gaining Weight Again 7,534 301 (3.87)  2006-11-23
?Pancake Fiction (Part 2) 836 20 (3.75)  2006-11-22
?Pancake Fiction (Part 1) 901 19 (4.05)  2006-11-21
?i put tons of effort into this 464 24 (3.75)  2006-11-20
?Jorge busch wants to buy a grand carrielition, but v... 1,290 87 (3.48)  2006-11-19
?A Very Square YTMND 639 31 (3.32)  2006-11-18
?PS3 on ebay will retail for... 7,126 86 (3.78)  2006-11-17
?Future Crocodile-O'Brien doesn't care... 946 41 (3.90)  2006-11-14
?Link finds a... what the hell is that? 1,323 36 (3.67)  2006-11-14
?Conan is...A TALK SHOW HOST 1,814 55 (4.07)  2006-11-11
?the guy who plays khan gets sick so borat plays hi... 2,940 36 (3.89)  2006-11-11
?WHICH CLOCK IS REAL 10,879 301 (3.31)  2006-11-09
?MY ENTRIE #! FOR BORAT CONTEST 1,513 48 (3.71)  2006-11-08
?HUGE TRUCK CRASH 2,128 71 (4.18)  2006-11-05
?EARTHQUAKE but some fat guy is too hungry to ... 707 20 (3.65)  2006-11-03
?Dean Wave 10,310 495 (4.35)  2006-11-01
?NBA Jam Returns 2,168 87 (3.83)  2006-10-31
?COOL MUSIC VIDEO 694 24 (3.88)  2006-10-30
?test site dont vote 1,024 42 (3.83)  2006-10-29
?how to eat an air conditioner in under 62 seconds 2,166 82 (3.32)  2006-10-29
?jorge busch shoots a +5 and at the same time teach... 1,383 84 (3.95)  2006-10-27
?KHAN-KHAN DANCE 744 45 (3.16)  2006-10-24
?Skating 607 23 (3.96)  2006-10-24
?(Voated5) How to prank Jon Carrie 18,034 571 (3.75)  2006-10-22
?Jared interviews some guy 1,031 56 (3.93)  2006-10-20
?Jared is DISGUSTED by the amount of grams 2,692 136 (3.92)  2006-10-20
?What Shaq Thinks of Kobe's CD 1,471 21 (3.76)  2006-10-19
?Alligator ate my Playmobil 1,073 33 (3.79)  2006-10-17
?SO UGLY 619 22 (3.68)  2006-10-17
?mitch hedberg tells a funny joke and the audience k... 1,258 42 (3.31)  2006-10-16
?George's Answering Machine 721 43 (3.72)  2006-10-15
?Low Budget Movie 647 28 (3.71)  2006-10-15
?ITS A TTSRAP 831 27 (4.11)  2006-10-15
?Too Much Orange Soda 984 46 (3.67)  2006-10-13
?KHAAAAAAAAAAAAAAAAAAAAAAAAA... 1,643 61 (4.13)  2006-10-11
?how jared really did it 1,027 34 (3.26)  2006-10-10
?Workout 908 42 (3.83)  2006-10-08
?Home Alone 5 Trailer 3,342 81 (3.49)  2006-10-07
?B.W.A. - Forgot the Polend (but not the 5s) 733 48 (3.73)  2006-10-04
?These Pretzels are Making You VOAT 5 1,517 101 (4.00)  2006-10-01
?My Relaxation Page 1,175 64 (3.61)  2006-09-29
?Jump Rope 1,235 39 (3.79)  2006-09-25
?Khan Goes to the Zoo 657 29 (3.48)  2006-09-19
?polend price is rong (part 5 of 5) 1,942 94 (3.97)  2006-09-15
?jon carrie forgot polend because of football 1,311 91 (3.62)  2006-09-09
?A New Kind of Tool 1,102 24 (3.54)  2006-09-07
?Scarface (short version) 901 27 (3.15)  2006-09-05
?Mr. Sparkle Song 4,173 49 (3.92)  2006-09-03
?(nsfw) Poland Bulls win at the buzzer (vote 5 for fa... 1,755 83 (3.89)  2006-08-29
?We're going to Poland, PLEASE VOT... 2,374 121 (3.25)  2006-08-20
?aliens polandize the world and make you vote 5 1,135 59 (3.63)  2006-08-19
?Federline Remembered Poland 3,573 113 (4.03)  2006-08-18
?Will Smith Gets 'Jiggy' with 'It&... 1,366 48 (3.46)  2006-08-13
?ce ytmnd est français 899 32 (2.16)  2006-08-12
?Daddy Jackson 672 28 (3.54)  2006-08-10
?The Who feat. Arnold - Who Are You? 16,256 440 (4.07)  2006-07-28
?Hippie Phil 3,959 39 (4.26)  2006-07-28
?Saget performs on AFV 1,152 38 (3.76)  2006-07-27
?Arnold is too strong for Price is Right 17,369 410 (4.01)  2006-07-25
?Your legacy? 1,619 38 (3.79)  2006-07-16
?What's the worst that could happen? 1,063 51 (3.45)  2006-07-16
?RollerCoaster Diecoon 12,286 502 (4.16)  2006-07-13
?Heffer Has No Manners (view in ie) 1,182 29 (3.38)  2006-07-12
?Tightening up graphics is a bad job 1,855 41 (3.61)  2006-07-05
?The REAL Reason the Great Wall of China was B... 15,878 500 (4.07)  2006-07-04
?Die Hard: With a Censorship 13,161 459 (4.20)  2006-04-28
?snakes on my burger 60,731 1,961 (4.32)  2006-04-03
?E.L.: Flying Lobsters 1,194 72 (3.38)  2006-03-31
?Wheres the cake? 1,467 62 (3.32)  2006-03-18
?spy on your friends! 24,079 865 (4.22)  2006-01-15
?Conan Grew a Mustache 2,416 59 (3.58)  2006-01-07
?Will Smith Buys Cheese 3,857 75 (3.73)  2005-12-27
?BINGO BANGO BONGO 2,001 49 (3.43)  2005-12-17
?YUO KHAN DO IT 5,520 105 (3.85)  2005-12-06
?"Im black yall" 8,328 83 (3.72)  2005-11-22
?push it 2,855 48 (3.15)  2005-10-05
?no idea 1,064 45 (3.02)  2005-09-24